Simultaneous Nadir Overpasses (SNOs) Predictions

Prediction of SNOs between NOAA-20 and AQUA Satellite Orbit:

Table of predicted SNOs for the next 14.0 days since TLE Epoch: 10/18/2023
Index Date (NOAA-20) Time (NOAA-20) Lat,Lon (NOAA-20) SZA (NOAA-20 ) Date (AQUA) Time (AQUA) Lat,Lon (AQUA) SZA (AQUA ) Distance(km) Time Diff (sec)
1 10/19/2023 14:46:45 80.95,-127.12 98.59 10/19/2023 14:46:56 80.95,-127.31 98.62 3.27 11
2 10/19/2023 15:37:29 -80.96, 40.58 81.46 10/19/2023 15:36:19 -80.97, 40.70 81.43 2.22 70
3 10/22/2023 04:31:23 -80.91,-154.11 80.40 10/22/2023 04:31:41 -80.91,-153.98 80.43 2.15 18
4 10/22/2023 05:22:04 80.97, 14.51 99.43 10/22/2023 05:21:02 80.97, 14.54 99.46 0.56 62
5 10/24/2023 18:15:56 80.94,-179.55 100.38 10/24/2023 18:16:21 80.94,-179.66 100.38 1.81 25
6 10/24/2023 19:06:39 -80.98, -11.44 79.73 10/24/2023 19:05:44 -80.97, -11.60 79.67 2.92 55
7 10/27/2023 08:00:32 -80.93, 154.09 78.73 10/27/2023 08:01:02 -80.93, 154.05 78.75 0.76 30
8 10/27/2023 08:51:13 80.99, -37.33 101.10 10/27/2023 08:50:23 80.99, -37.50 101.16 2.84 50
9 10/29/2023 21:45:06 80.94, 128.09 102.09 10/29/2023 21:45:40 80.93, 127.93 102.09 2.97 34
10 10/29/2023 22:35:50 -80.96, -64.11 77.97 10/29/2023 22:35:03 -80.96, -63.97 77.96 2.45 47
11 11/01/2023 11:29:41 -80.92, 101.64 77.05 11/01/2023 11:30:17 -80.92, 101.66 77.08 0.44 36



Historial Predications of SNOs between NOAA-20 and AQUA
